Wetterdaten: Woche 02.02.15 - 08.02.15 (KW6)
Datum Zeit Temperatur Luftfeuchte Luftdruck Niederschlag Windrichtung Sonnenschein Solar Wind
02.02.2015 00:00 -1,2 C 93 % 996,8 hPa 0,0 l/m W-SW 0,00 h 0 W/m 21,7 km/h (4 Bft)
02.02.2015 01:00 -1,3 C 94 % 996,7 hPa 0,0 l/m W-SW 0,00 h 0 W/m 26,7 km/h (4 Bft)
02.02.2015 02:00 -1,1 C 94 % 996,9 hPa 0,0 l/m SW 0,00 h 0 W/m 26,7 km/h (4 Bft)
02.02.2015 03:00 -1,1 C 95 % 997,1 hPa 0,0 l/m W-SW 0,00 h 0 W/m 22,9 km/h (4 Bft)
02.02.2015 04:00 -0,9 C 95 % 997,6 hPa 0,0 l/m W 0,00 h 0 W/m 20,9 km/h (4 Bft)
02.02.2015 05:00 -0,7 C 95 % 998,5 hPa 0,4 l/m W 0,00 h 0 W/m 20,5 km/h (4 Bft)
02.02.2015 06:00 -0,8 C 95 % 999,8 hPa 0,0 l/m W 0,00 h 0 W/m 15,6 km/h (3 Bft)
02.02.2015 07:00 -0,8 C 95 % 1000,7 hPa 0,0 l/m W 0,00 h 0 W/m 10,9 km/h (2 Bft)
02.02.2015 08:00 -1,0 C 94 % 1001,3 hPa 0,0 l/m W-SW 0,00 h 11 W/m 13,3 km/h (3 Bft)
02.02.2015 09:00 -0,8 C 95 % 1001,7 hPa 0,0 l/m W-SW 0,00 h 25 W/m 11,0 km/h (2 Bft)
02.02.2015 10:00 -0,3 C 95 % 1001,7 hPa 0,0 l/m SW 0,00 h 55 W/m 12,2 km/h (2 Bft)
02.02.2015 11:00 0,3 C 92 % 1001,7 hPa 0,0 l/m W-SW 0,00 h 141 W/m 16,5 km/h (3 Bft)
02.02.2015 12:00 0,4 C 90 % 1001,5 hPa 0,2 l/m W-SW 0,00 h 105 W/m 18,1 km/h (3 Bft)
02.02.2015 13:00 0,6 C 88 % 1001,4 hPa 0,2 l/m W-SW 0,00 h 99 W/m 18,4 km/h (3 Bft)
02.02.2015 14:00 -0,6 C 93 % 1001,2 hPa 0,0 l/m N 0,00 h 28 W/m 5,3 km/h (1 Bft)
02.02.2015 15:00 -0,8 C 95 % 1001,4 hPa 2,0 l/m W-NW 0,00 h 13 W/m 5,1 km/h (1 Bft)
02.02.2015 16:00 -0,7 C 96 % 1001,8 hPa 1,8 l/m W-NW 0,00 h 6 W/m 5,7 km/h (1 Bft)
02.02.2015 17:00 -0,8 C 96 % 1002,1 hPa 1,2 l/m N 0,00 h 0 W/m 2,9 km/h (1 Bft)
02.02.2015 18:00 -1,3 C 96 % 1002,4 hPa 0,2 l/m N 0,00 h 0 W/m 3,5 km/h (1 Bft)
02.02.2015 19:00 -1,6 C 96 % 1002,8 hPa 0,2 l/m W-NW 0,00 h 0 W/m 5,9 km/h (2 Bft)
02.02.2015 20:00 -1,8 C 96 % 1003,0 hPa 0,0 l/m W 0,00 h 0 W/m 3,3 km/h (1 Bft)
02.02.2015 21:00 -2,3 C 96 % 1003,0 hPa 0,0 l/m W 0,00 h 0 W/m 2,9 km/h (1 Bft)
02.02.2015 22:00 -2,7 C 96 % 1003,2 hPa 0,0 l/m W 0,00 h 0 W/m 2,4 km/h (1 Bft)
02.02.2015 23:00 -2,9 C 96 % 1003,1 hPa 0,0 l/m N 0,00 h 0 W/m 1,3 km/h (1 Bft)
03.02.2015 00:00 -3,5 C 96 % 1003,0 hPa 0,0 l/m N 0,00 h 0 W/m 0,0 km/h (0 Bft)
03.02.2015 01:00 -3,8 C 96 % 1002,9 hPa 0,0 l/m N 0,00 h 0 W/m 0,0 km/h (0 Bft)
03.02.2015 02:00 -3,4 C 96 % 1002,8 hPa 0,0 l/m N 0,00 h 0 W/m 0,3 km/h (0 Bft)
03.02.2015 03:00 -3,1 C 97 % 1002,5 hPa 0,0 l/m N 0,00 h 0 W/m 0,3 km/h (0 Bft)
03.02.2015 04:00 -3,2 C 96 % 1002,2 hPa 0,0 l/m N 0,00 h 0 W/m 0,0 km/h (0 Bft)
03.02.2015 05:00 -3,9 C 96 % 1002,0 hPa 0,0 l/m W 0,00 h 0 W/m 1,6 km/h (1 Bft)
03.02.2015 06:00 -4,9 C 96 % 1001,9 hPa 0,0 l/m W 0,00 h 0 W/m 1,5 km/h (1 Bft)
03.02.2015 07:00 -6,1 C 95 % 1001,9 hPa 0,0 l/m W-NW 0,00 h 5 W/m 4,8 km/h (1 Bft)
03.02.2015 08:00 -7,0 C 95 % 1002,4 hPa 0,0 l/m W-NW 0,00 h 13 W/m 4,5 km/h (1 Bft)
03.02.2015 09:00 -7,0 C 96 % 1002,8 hPa 0,0 l/m W-NW 0,00 h 41 W/m 4,7 km/h (1 Bft)
03.02.2015 10:00 -6,3 C 96 % 1003,0 hPa 0,0 l/m W-NW 0,00 h 93 W/m 3,9 km/h (1 Bft)
03.02.2015 11:00 -5,0 C 97 % 1003,1 hPa 0,0 l/m W-NW 0,92 h 296 W/m 5,3 km/h (1 Bft)
03.02.2015 12:00 -3,2 C 97 % 1002,7 hPa 0,0 l/m W-NW 1,00 h 380 W/m 5,2 km/h (1 Bft)
03.02.2015 13:00 -1,4 C 94 % 1002,6 hPa 0,0 l/m NO 1,00 h 408 W/m 9,7 km/h (2 Bft)
03.02.2015 14:00 -0,4 C 89 % 1002,7 hPa 0,0 l/m NO 1,00 h 305 W/m 9,3 km/h (2 Bft)
03.02.2015 15:00 -0,4 C 83 % 1002,6 hPa 0,0 l/m NO 1,00 h 219 W/m 10,5 km/h (2 Bft)
03.02.2015 16:00 -1,2 C 83 % 1002,8 hPa 0,0 l/m NO 0,50 h 82 W/m 7,5 km/h (2 Bft)
03.02.2015 17:00 -2,5 C 85 % 1003,4 hPa 0,0 l/m NO 0,00 h 11 W/m 5,5 km/h (1 Bft)
03.02.2015 18:00 -3,9 C 88 % 1003,8 hPa 0,0 l/m NO 0,00 h 0 W/m 4,0 km/h (1 Bft)
03.02.2015 19:00 -5,0 C 88 % 1004,2 hPa 0,0 l/m N 0,00 h 0 W/m 2,1 km/h (1 Bft)
03.02.2015 20:00 -5,7 C 90 % 1004,6 hPa 0,0 l/m NO 0,00 h 0 W/m 2,4 km/h (1 Bft)
03.02.2015 21:00 -6,1 C 92 % 1005,0 hPa 0,0 l/m NO 0,00 h 0 W/m 3,1 km/h (1 Bft)
03.02.2015 22:00 -6,5 C 92 % 1005,2 hPa 0,0 l/m N 0,00 h 0 W/m 0,9 km/h (0 Bft)
03.02.2015 23:00 -6,7 C 93 % 1005,1 hPa 0,0 l/m N 0,00 h 0 W/m 2,8 km/h (1 Bft)
04.02.2015 00:00 -6,6 C 93 % 1005,5 hPa 0,0 l/m N-NO 0,00 h 0 W/m 4,4 km/h (1 Bft)
04.02.2015 01:00 -6,7 C 94 % 1005,8 hPa 0,0 l/m N-NO 0,00 h 0 W/m 5,9 km/h (2 Bft)
04.02.2015 02:00 -6,8 C 94 % 1006,0 hPa 0,0 l/m N-NO 0,00 h 0 W/m 7,7 km/h (2 Bft)
04.02.2015 03:00 -7,1 C 94 % 1006,1 hPa 0,0 l/m N 0,00 h 0 W/m 6,1 km/h (2 Bft)
04.02.2015 04:00 -7,4 C 94 % 1006,5 hPa 0,0 l/m N 0,00 h 0 W/m 4,7 km/h (1 Bft)
04.02.2015 05:00 -6,9 C 95 % 1007,0 hPa 0,0 l/m NO 0,00 h 0 W/m 8,2 km/h (2 Bft)
04.02.2015 06:00 -6,8 C 95 % 1007,4 hPa 0,0 l/m NO 0,00 h 0 W/m 9,3 km/h (2 Bft)
04.02.2015 07:00 -6,8 C 95 % 1008,0 hPa 0,0 l/m NO 0,00 h 6 W/m 6,4 km/h (2 Bft)
04.02.2015 08:00 -7,1 C 95 % 1008,5 hPa 0,0 l/m N-NO 0,00 h 31 W/m 6,4 km/h (2 Bft)
04.02.2015 09:00 -6,9 C 96 % 1008,8 hPa 0,0 l/m N-NO 0,33 h 127 W/m 6,4 km/h (2 Bft)
04.02.2015 10:00 -5,7 C 96 % 1009,3 hPa 0,0 l/m N-NO 0,33 h 219 W/m 7,9 km/h (2 Bft)
04.02.2015 11:00 -4,5 C 96 % 1009,7 hPa 0,0 l/m NO 1,00 h 404 W/m 11,0 km/h (2 Bft)
04.02.2015 12:00 -3,2 C 94 % 1009,6 hPa 0,0 l/m NO 1,00 h 425 W/m 12,6 km/h (3 Bft)
04.02.2015 13:00 -1,4 C 90 % 1009,6 hPa 0,0 l/m N-NO 1,00 h 420 W/m 15,7 km/h (3 Bft)
04.02.2015 14:00 -1,3 C 87 % 1010,0 hPa 0,0 l/m NO 0,42 h 229 W/m 15,7 km/h (3 Bft)
04.02.2015 15:00 -2,1 C 87 % 1010,6 hPa 0,0 l/m NO 0,25 h 136 W/m 18,2 km/h (3 Bft)
04.02.2015 16:00 -3,2 C 89 % 1011,4 hPa 0,0 l/m NO 0,00 h 23 W/m 18,1 km/h (3 Bft)
04.02.2015 17:00 -4,1 C 91 % 1012,4 hPa 0,0 l/m N-NO 0,00 h 6 W/m 20,4 km/h (4 Bft)
04.02.2015 18:00 -4,4 C 92 % 1013,4 hPa 0,0 l/m O-NO 0,00 h 0 W/m 18,2 km/h (3 Bft)
04.02.2015 19:00 -4,2 C 92 % 1014,1 hPa 0,0 l/m NO 0,00 h 0 W/m 13,0 km/h (3 Bft)
04.02.2015 20:00 -4,0 C 92 % 1014,3 hPa 0,0 l/m NO 0,00 h 0 W/m 15,4 km/h (3 Bft)
04.02.2015 21:00 -3,9 C 91 % 1014,6 hPa 0,0 l/m O-NO 0,00 h 0 W/m 16,1 km/h (3 Bft)
04.02.2015 22:00 -3,8 C 90 % 1014,5 hPa 0,0 l/m NO 0,00 h 0 W/m 11,8 km/h (2 Bft)
04.02.2015 23:00 -3,9 C 91 % 1014,2 hPa 0,0 l/m NO 0,00 h 0 W/m 12,2 km/h (2 Bft)
05.02.2015 00:00 -4,0 C 91 % 1013,8 hPa 0,0 l/m NO 0,00 h 0 W/m 10,2 km/h (2 Bft)
05.02.2015 01:00 -4,1 C 91 % 1013,8 hPa 0,0 l/m NO 0,00 h 0 W/m 12,6 km/h (3 Bft)
05.02.2015 02:00 -4,2 C 92 % 1013,7 hPa 0,0 l/m NO 0,00 h 0 W/m 14,6 km/h (3 Bft)
05.02.2015 03:00 -4,2 C 93 % 1013,2 hPa 0,0 l/m NO 0,00 h 0 W/m 15,3 km/h (3 Bft)
05.02.2015 04:00 -4,3 C 93 % 1012,9 hPa 0,0 l/m NO 0,00 h 0 W/m 18,9 km/h (3 Bft)
05.02.2015 05:00 -4,3 C 93 % 1013,1 hPa 0,0 l/m NO 0,00 h 0 W/m 18,4 km/h (3 Bft)
05.02.2015 06:00 -4,3 C 93 % 1012,8 hPa 0,0 l/m NO 0,00 h 0 W/m 16,0 km/h (3 Bft)
05.02.2015 07:00 -4,2 C 93 % 1012,7 hPa 0,0 l/m O-NO 0,00 h 0 W/m 18,5 km/h (3 Bft)
05.02.2015 08:00 -4,1 C 93 % 1012,7 hPa 0,0 l/m O-NO 0,00 h 11 W/m 21,8 km/h (4 Bft)
05.02.2015 09:00 -3,9 C 92 % 1012,9 hPa 0,0 l/m O-NO 0,00 h 45 W/m 22,6 km/h (4 Bft)
05.02.2015 10:00 -3,4 C 88 % 1013,2 hPa 0,0 l/m O-NO 0,00 h 106 W/m 23,6 km/h (4 Bft)
05.02.2015 11:00 -2,9 C 85 % 1013,1 hPa 0,0 l/m O-NO 0,00 h 120 W/m 25,4 km/h (4 Bft)
05.02.2015 12:00 -2,8 C 83 % 1012,8 hPa 0,0 l/m O-NO 0,00 h 111 W/m 22,8 km/h (4 Bft)
05.02.2015 13:00 -2,8 C 83 % 1012,5 hPa 0,0 l/m NO 0,00 h 78 W/m 27,1 km/h (4 Bft)
05.02.2015 14:00 -3,1 C 85 % 1012,6 hPa 0,0 l/m O-NO 0,00 h 36 W/m 20,6 km/h (4 Bft)
05.02.2015 15:00 -3,3 C 86 % 1012,8 hPa 0,0 l/m O-NO 0,00 h 41 W/m 20,4 km/h (4 Bft)
05.02.2015 16:00 -3,7 C 89 % 1012,9 hPa 0,0 l/m O-NO 0,00 h 18 W/m 19,6 km/h (3 Bft)
05.02.2015 17:00 -4,0 C 92 % 1012,8 hPa 0,0 l/m O-NO 0,00 h 6 W/m 17,7 km/h (3 Bft)
05.02.2015 18:00 -3,8 C 92 % 1012,9 hPa 0,0 l/m NO 0,00 h 0 W/m 22,2 km/h (4 Bft)
05.02.2015 19:00 -3,3 C 92 % 1012,9 hPa 0,0 l/m NO 0,00 h 0 W/m 22,0 km/h (4 Bft)
05.02.2015 20:00 -3,0 C 90 % 1012,7 hPa 0,0 l/m O-NO 0,00 h 0 W/m 24,0 km/h (4 Bft)
05.02.2015 21:00 -2,8 C 89 % 1013,0 hPa 0,0 l/m O-NO 0,00 h 0 W/m 26,1 km/h (4 Bft)
05.02.2015 22:00 -2,8 C 89 % 1012,9 hPa 0,0 l/m NO 0,00 h 0 W/m 24,7 km/h (4 Bft)
05.02.2015 23:00 -2,8 C 89 % 1013,0 hPa 0,0 l/m NO 0,00 h 0 W/m 26,3 km/h (4 Bft)
06.02.2015 00:00 -2,7 C 90 % 1013,3 hPa 0,0 l/m O-NO 0,00 h 0 W/m 27,8 km/h (4 Bft)
06.02.2015 01:00 -2,6 C 89 % 1013,2 hPa 0,0 l/m O-NO 0,00 h 0 W/m 28,2 km/h (4 Bft)
06.02.2015 02:00 -2,7 C 89 % 1013,2 hPa 0,0 l/m O-NO 0,00 h 0 W/m 26,5 km/h (4 Bft)
06.02.2015 03:00 -2,9 C 89 % 1013,3 hPa 0,0 l/m O-NO 0,00 h 0 W/m 28,0 km/h (4 Bft)
06.02.2015 04:00 -3,2 C 88 % 1013,6 hPa 0,0 l/m NO 0,00 h 0 W/m 27,9 km/h (4 Bft)
06.02.2015 05:00 -3,4 C 88 % 1013,6 hPa 0,0 l/m NO 0,00 h 0 W/m 29,6 km/h (5 Bft)
06.02.2015 06:00 -3,8 C 88 % 1013,9 hPa 0,0 l/m O-NO 0,00 h 0 W/m 29,8 km/h (5 Bft)
06.02.2015 07:00 -4,3 C 88 % 1014,3 hPa 0,0 l/m O-NO 0,00 h 0 W/m 31,6 km/h (5 Bft)
06.02.2015 08:00 -4,7 C 88 % 1015,0 hPa 0,0 l/m O-NO 0,00 h 11 W/m 32,2 km/h (5 Bft)
06.02.2015 09:00 -4,8 C 88 % 1015,4 hPa 0,0 l/m O-NO 0,00 h 33 W/m 30,7 km/h (5 Bft)
06.02.2015 10:00 -4,7 C 87 % 1015,9 hPa 0,0 l/m O-NO 0,00 h 62 W/m 33,5 km/h (5 Bft)
06.02.2015 11:00 -4,2 C 87 % 1016,4 hPa 0,0 l/m O-NO 0,00 h 86 W/m 33,3 km/h (5 Bft)
06.02.2015 12:00 -3,9 C 86 % 1016,6 hPa 0,0 l/m O-NO 0,00 h 79 W/m 36,1 km/h (5 Bft)
06.02.2015 13:00 -3,4 C 84 % 1016,5 hPa 0,0 l/m NO 0,00 h 89 W/m 32,3 km/h (5 Bft)
06.02.2015 14:00 -3,1 C 82 % 1016,6 hPa 0,0 l/m O 0,00 h 79 W/m 34,1 km/h (5 Bft)
06.02.2015 15:00 -2,8 C 81 % 1017,1 hPa 0,0 l/m O-NO 0,00 h 64 W/m 36,5 km/h (5 Bft)
06.02.2015 16:00 -2,7 C 80 % 1017,6 hPa 0,0 l/m O 0,00 h 25 W/m 27,4 km/h (4 Bft)
06.02.2015 17:00 -2,7 C 81 % 1018,3 hPa 0,0 l/m O 0,00 h 7 W/m 28,2 km/h (4 Bft)
06.02.2015 18:00 -3,0 C 81 % 1019,1 hPa 0,0 l/m O 0,00 h 0 W/m 31,7 km/h (5 Bft)
06.02.2015 19:00 -3,6 C 80 % 1019,7 hPa 0,0 l/m O 0,00 h 0 W/m 29,5 km/h (5 Bft)
06.02.2015 20:00 -4,2 C 81 % 1020,3 hPa 0,0 l/m O-NO 0,00 h 0 W/m 26,7 km/h (4 Bft)
06.02.2015 21:00 -4,5 C 82 % 1021,0 hPa 0,0 l/m O-NO 0,00 h 0 W/m 25,1 km/h (4 Bft)
06.02.2015 22:00 -4,7 C 83 % 1021,4 hPa 0,0 l/m O-NO 0,00 h 0 W/m 24,8 km/h (4 Bft)
06.02.2015 23:00 -4,5 C 82 % 1021,4 hPa 0,0 l/m O-NO 0,00 h 0 W/m 26,9 km/h (4 Bft)
07.02.2015 00:00 -4,4 C 81 % 1021,9 hPa 0,0 l/m O-NO 0,00 h 0 W/m 22,7 km/h (4 Bft)
07.02.2015 01:00 -4,6 C 82 % 1022,4 hPa 0,0 l/m O-NO 0,00 h 0 W/m 21,6 km/h (4 Bft)
07.02.2015 02:00 -5,0 C 83 % 1022,9 hPa 0,0 l/m O-NO 0,00 h 0 W/m 19,3 km/h (3 Bft)
07.02.2015 03:00 -5,5 C 83 % 1023,3 hPa 0,0 l/m NO 0,00 h 0 W/m 22,5 km/h (4 Bft)
07.02.2015 04:00 -5,9 C 85 % 1023,7 hPa 0,0 l/m NO 0,00 h 0 W/m 23,3 km/h (4 Bft)
07.02.2015 05:00 -6,2 C 86 % 1024,3 hPa 0,0 l/m NO 0,00 h 0 W/m 16,8 km/h (3 Bft)
07.02.2015 06:00 -6,5 C 86 % 1024,9 hPa 0,0 l/m NO 0,00 h 0 W/m 15,2 km/h (3 Bft)
07.02.2015 07:00 -6,3 C 87 % 1025,1 hPa 0,0 l/m O-NO 0,00 h 6 W/m 15,6 km/h (3 Bft)
07.02.2015 08:00 -6,2 C 86 % 1025,6 hPa 0,0 l/m NO 0,00 h 24 W/m 12,5 km/h (3 Bft)
07.02.2015 09:00 -5,8 C 86 % 1026,0 hPa 0,0 l/m NO 0,00 h 71 W/m 13,6 km/h (3 Bft)
07.02.2015 10:00 -5,2 C 84 % 1026,4 hPa 0,0 l/m NO 0,17 h 181 W/m 15,7 km/h (3 Bft)
07.02.2015 11:00 -4,7 C 82 % 1026,6 hPa 0,0 l/m NO 0,50 h 325 W/m 13,2 km/h (3 Bft)
07.02.2015 12:00 -3,6 C 77 % 1025,9 hPa 0,0 l/m O-NO 1,00 h 444 W/m 20,5 km/h (4 Bft)
07.02.2015 13:00 -2,8 C 75 % 1025,8 hPa 0,0 l/m NO 1,00 h 426 W/m 16,0 km/h (3 Bft)
07.02.2015 14:00 -2,2 C 72 % 1025,8 hPa 0,0 l/m NO 1,00 h 360 W/m 18,2 km/h (3 Bft)
07.02.2015 15:00 -2,2 C 73 % 1026,1 hPa 0,0 l/m N-NO 1,00 h 241 W/m 16,8 km/h (3 Bft)
07.02.2015 16:00 -2,9 C 76 % 1026,4 hPa 0,0 l/m NO 0,83 h 94 W/m 13,3 km/h (3 Bft)
07.02.2015 17:00 -3,5 C 77 % 1027,1 hPa 0,0 l/m N-NO 0,08 h 14 W/m 9,7 km/h (2 Bft)
07.02.2015 18:00 -4,2 C 78 % 1027,0 hPa 0,0 l/m N 0,00 h 0 W/m 1,2 km/h (1 Bft)
07.02.2015 19:00 -5,4 C 80 % 1027,3 hPa 0,0 l/m N 0,00 h 0 W/m 0,9 km/h (0 Bft)
07.02.2015 20:00 -6,5 C 82 % 1027,3 hPa 0,0 l/m N 0,00 h 0 W/m 0,5 km/h (0 Bft)
07.02.2015 21:00 -7,3 C 84 % 1027,4 hPa 0,0 l/m N-NO 0,00 h 0 W/m 3,6 km/h (1 Bft)
07.02.2015 22:00 -8,6 C 86 % 1026,7 hPa 0,0 l/m N-NO 0,00 h 0 W/m 2,0 km/h (1 Bft)
07.02.2015 23:00 -9,0 C 88 % 1027,2 hPa 0,0 l/m N 0,00 h 0 W/m 0,5 km/h (0 Bft)
08.02.2015 00:00 -9,3 C 90 % 1026,8 hPa 0,0 l/m N-NO 0,00 h 0 W/m 0,8 km/h (0 Bft)
08.02.2015 01:00 -9,7 C 90 % 1026,8 hPa 0,0 l/m N 0,00 h 0 W/m 0,0 km/h (0 Bft)
08.02.2015 02:00 -9,8 C 91 % 1026,9 hPa 0,0 l/m N 0,00 h 0 W/m 0,3 km/h (0 Bft)
08.02.2015 03:00 -9,4 C 92 % 1026,1 hPa 0,0 l/m N-NO 0,00 h 0 W/m 2,0 km/h (1 Bft)
08.02.2015 04:00 -7,8 C 94 % 1025,3 hPa 0,0 l/m S 0,00 h 0 W/m 5,8 km/h (1 Bft)
08.02.2015 05:00 -6,7 C 93 % 1025,7 hPa 0,0 l/m S-SW 0,00 h 0 W/m 8,2 km/h (2 Bft)
08.02.2015 06:00 -6,2 C 93 % 1025,2 hPa 0,0 l/m S-SW 0,00 h 0 W/m 10,8 km/h (2 Bft)
08.02.2015 07:00 -5,6 C 94 % 1025,5 hPa 0,0 l/m S-SW 0,00 h 5 W/m 10,2 km/h (2 Bft)
08.02.2015 08:00 -5,1 C 94 % 1025,6 hPa 0,0 l/m SW 0,00 h 14 W/m 8,2 km/h (2 Bft)
08.02.2015 09:00 -4,5 C 95 % 1026,1 hPa 0,2 l/m S-SW 0,00 h 45 W/m 8,7 km/h (2 Bft)
08.02.2015 10:00 -3,8 C 95 % 1025,9 hPa 0,0 l/m SW 0,00 h 69 W/m 10,1 km/h (2 Bft)
08.02.2015 11:00 -3,1 C 95 % 1026,3 hPa 0,2 l/m SW 0,00 h 85 W/m 4,8 km/h (1 Bft)
08.02.2015 12:00 -1,6 C 91 % 1026,0 hPa 0,0 l/m SW 0,42 h 331 W/m 4,8 km/h (1 Bft)
08.02.2015 13:00 0,7 C 77 % 1026,1 hPa 0,0 l/m N-NO 0,08 h 153 W/m 16,5 km/h (3 Bft)
08.02.2015 14:00 -0,8 C 85 % 1026,4 hPa 0,0 l/m N-NW 0,00 h 92 W/m 15,3 km/h (3 Bft)
08.02.2015 15:00 -0,1 C 79 % 1026,7 hPa 0,0 l/m N-NW 0,75 h 248 W/m 13,0 km/h (3 Bft)
08.02.2015 16:00 0,2 C 73 % 1027,1 hPa 0,0 l/m N-NO 0,75 h 117 W/m 13,4 km/h (3 Bft)
08.02.2015 17:00 -0,6 C 71 % 1028,0 hPa 0,0 l/m N 0,25 h 19 W/m 12,1 km/h (2 Bft)
08.02.2015 18:00 -1,3 C 72 % 1029,3 hPa 0,0 l/m N 0,00 h 0 W/m 6,1 km/h (2 Bft)
08.02.2015 19:00 -2,0 C 74 % 1030,2 hPa 0,0 l/m N 0,00 h 0 W/m 1,7 km/h (1 Bft)
08.02.2015 20:00 -2,9 C 74 % 1031,1 hPa 0,0 l/m N-NW 0,00 h 0 W/m 8,0 km/h (2 Bft)
08.02.2015 21:00 -3,6 C 73 % 1031,5 hPa 0,0 l/m N-NW 0,00 h 0 W/m 2,8 km/h (1 Bft)
08.02.2015 22:00 -5,2 C 74 % 1031,4 hPa 0,0 l/m N-NW 0,00 h 0 W/m 1,7 km/h (1 Bft)
08.02.2015 23:00 -6,3 C 78 % 1031,8 hPa 0,0 l/m N-NW 0,00 h 0 W/m 2,0 km/h (1 Bft)
Min-Datum _ 08.02.15 08.02.15 02.02.15 - - - - 02.02.15
_ Min-Zeit 02:05 17:05 00:40 - - - - 14:15
Minimum _ -9,9 C 70 % 996,6 hPa - - - - 0,0 km/h (0 Bft)
Max-Datum _ 08.02.15 02.02.15 08.02.15 02.02.15 - 03.02.15 08.02.15 06.02.15
_ Max-Zeit 13:45 11:05 23:00 15:25 - 11:05 12:55 08:00
Maximum _ 1,1 C 100 % 1032,1 hPa 2,0 l/m - 0,08 h 561 W/m 49,9 km/h
O-NO (6 Bft)
Durchschnitt _ -3,8 C 89 % 1013,7 hPa #6,6 l/m NO #17:35 h 121 W/m 14,0 km/h (3 Bft)